Flight Track Log - Related Links

Times and Time Zones

All times are in EST time to prevent confusion due to time zone crossing. See the SWA337 flight status page for this flight to view local times or setup timezone preferences in your user account.

Time Position Orientation Groundspeed Altitude Reporting Facility
EST Latitude Longitude Course Direction KTS MPH feet Rate Location/Type
Tue 05:58:13 PM 42.9333 -87.9667 255° West 178 205 4,200  Level KMKE
Tue 05:59:36 PM 42.9625 -88.0522 295° West 248 285 8,200 2,938 Climbing Chicago Center
Tue 06:00:38 PM 43.0222 -88.1139 323° Northwest 265 305 11,300 2,952 Climbing Chicago Center
Tue 06:01:40 PM 43.0836 -88.1992 315° West 311 358 14,300 3,435 Climbing Chicago Center
Tue 06:02:42 PM 43.1553 -88.3242 308° West 341 392 18,400 3,726 Climbing Chicago Center
Tue 06:03:44 PM 43.2161 -88.4306 308° West 352 405 22,000 2,952 Climbing Chicago Center
Tue 06:04:46 PM 43.2772 -88.5369 308° West 350 403 24,500 2,129 Climbing Chicago Center
Tue 06:05:48 PM 43.3436 -88.6506 309° West 371 427 26,400 1,839 Climbing Chicago Center
Tue 06:06:50 PM 43.4128 -88.7731 308° West 394 453 28,300 2,323 Climbing Chicago Center
Tue 06:07:52 PM 43.4803 -88.8914 308° West 394 453 31,200 1,790 Climbing Chicago Center
Tue 06:08:54 PM 43.5453 -89.0064 308° West 385 443 32,000 384 Climbing Chicago Center
Tue 06:09:57 PM 43.6106 -89.1219 308° West 383 441 32,000  Level Chicago Center
Tue 06:10:59 PM 43.6881 -89.2603 308° West 380 437 32,000  Level Chicago Center
Tue 06:12:01 PM 43.7533 -89.3750 308° West 380 437 32,000  Level Chicago Center
Tue 06:13:03 PM 43.8189 -89.4911 308° West 381 438 32,000  Level Chicago Center
Tue 06:14:05 PM 43.8850 -89.6100 308° West 387 445 32,000  Level Chicago Center
Tue 06:15:07 PM 43.9472 -89.7314 305° West 388 447 32,000  Level Chicago Center
Tue 06:16:09 PM 43.9944 -89.8603 297° West 379 436 32,000  Level Chicago Center
Tue 06:17:11 PM 44.0544 -90.0178 298° West 382 440 32,000  Level Chicago Center
Tue 06:18:13 PM 44.1033 -90.1486 298° West 382 440 32,000  Level Chicago Center
Tue 06:19:15 PM 44.1528 -90.2803 298° West 384 442 32,000  Level Chicago Center
Tue 06:20:18 PM 44.2044 -90.4233 297° West 382 440 32,000  Level Chicago Center
Tue 06:21:20 PM 44.2528 -90.5528 298° West 381 438 32,000  Level Chicago Center
Tue 06:22:22 PM 44.3008 -90.6833 297° West 381 438 32,000  Level Chicago Center
Tue 06:23:25 PM 44.3489 -90.8147 297° West 381 438 32,000  Level Chicago Center
Tue 06:24:26 PM 44.3953 -90.9439 297° West 379 436 32,000  Level Chicago Center
Tue 06:25:28 PM 44.4511 -91.0983 297° West 375 432 32,000 -1,016 Level Chicago Center
Tue 06:26:30 PM 44.4972 -91.2253 297° West 371 427 29,900 -2,129 Descending Chicago Center
Tue 06:27:32 PM 44.5411 -91.3511 296° West 365 420 27,600 -2,129 Descending Chicago Center
Tue 06:28:34 PM 44.5844 -91.4733 296° West 356 410 25,500 -2,153 Descending Chicago Center
Tue 06:29:43 PM 44.6372 -91.6161 297° West 340 391 22,900 -2,061 Descending Minneapolis Center
Tue 06:30:45 PM 44.6758 -91.7275 296° West 326 375 21,000 -1,887 Descending Minneapolis Center
Tue 06:31:47 PM 44.7150 -91.8378 297° West 320 368 19,000 -2,081 Descending Minneapolis Center
Tue 06:32:49 PM 44.7531 -91.9467 296° West 312 359 16,700 -2,081 Descending Minneapolis Center
Tue 06:33:51 PM 44.7914 -92.0561 296° West 312 359 14,700 -2,129 Descending Minneapolis Center
Tue 06:34:53 PM 44.8353 -92.1822 296° West 302 348 12,300 -2,081 Descending Minneapolis Center
Tue 06:35:55 PM 44.8711 -92.2861 296° West 297 342 10,400 -1,210 Descending Minneapolis Center
Tue 06:36:57 PM 44.8536 -92.3889 257° West 288 331 9,800 -919 Descending Minneapolis Center
Tue 06:37:59 PM 44.8122 -92.4750 236° Southwest 269 310 8,500 -1,366 Descending Minneapolis Center
Tue 06:39:00 PM 44.7806 -92.5633 243° Southwest 255 293 7,000 -732 Descending Minneapolis Center
Tue 06:40:02 PM 44.7667 -92.6589 258° West 249 287 7,000 -339 Level Minneapolis Center
Tue 06:41:04 PM 44.7494 -92.7728 258° West 249 287 6,300 -968 Descending Minneapolis Center
Tue 06:42:06 PM 44.7350 -92.8689 258° West 251 289 5,000 -629 Descending Minneapolis Center
Tue 06:43:08 PM 44.7631 -92.9478 297° West 232 267 5,000 -435 Level Minneapolis Center
Tue 06:44:10 PM 44.7906 -93.0111 301° West 198 228 4,100 -968 Descending Minneapolis Center
Tue 06:45:12 PM 44.8167 -93.0708 302° West 184 212 3,000 -1,016 Descending Minneapolis Center
Tue 06:46:14 PM 44.8428 -93.1300 302° West 146 168 2,000 -816 Descending Minneapolis Center
Tue 06:47:17 PM 44.8603 -93.1700 302° West 122 140 1,300 -667 Descending Minneapolis Center
Tue 06:49:00 PM 44.8667 -93.2167 270° West  Level FlightAware Approximate
Tue 06:56:00 PM 44.8820 -93.2218 270° West  Level Estimated

Login

Don't have an account? Register now (free) for customized features, flight alerts, and more!